Regional Weather Roundup
Issued by NWS State College, PA

Home | Current Version | Previous Version | Text Only | Print | Product List | Glossary On
Versions: 1 2 3 4 5 6 7 8 9 10 11 12 13 14 15 16 17 18 19 20 21 22 23 24 25 26 27 28 29 30 31 32 33 34 35 36 37 38 39 40 41 42 43 44 45 46 47 48 49 50
000
ASUS41 KCTP 232103
RWRCTP

REGIONAL WEATHER ROUNDUP
NATIONAL WEATHER SERVICE STATE COLLEGE PA
500 PM EDT SAT MAY 23 2015

Note: "fair" indicates few or no clouds below 12,000 feet with no
significant weather and/or obstructions to visibility.

* = STATION THAT DOES NOT REPORT PRECIPITATION /E.G. RAIN...SNOW...ETC/
    THUNDER OR FOG.

PAZ002>004-007>009-013>016-020>023-029>032-232200-
WESTERN PENNSYLVANIA

CITY           SKY/WX    TMP DP  RH WIND       PRES   REMARKS
ERIE           SUNNY     66  27  23 W8        30.37F
MEADVILLE      SUNNY     68  31  25 W7G16     30.37F
FRANKLIN*      SUNNY     68  34  28 SW5       30.38F
NEW CASTLE     FAIR      72  35  25 VRB7      30.37F
BEAVER COUNTY  SUNNY     72  36  26 W6        30.37F
BUTLER*        SUNNY     70  34  26 W5        30.39S
PITTSBURGH INT MOSUNNY   72  35  25 W12G18    30.36F
PITTSBURGH     SUNNY     70  29  21 VRB5      30.36F
INDIANA*       SUNNY     68  32  26 W6G14     30.41F
LATROBE        SUNNY     68  36  30 W7        30.40F
WASHINGTON CO* SUNNY     72  37  28 W6        30.39F
$$

PAZ004>006-010>012-017>019-024>028-033>037-041-042-045-046-049>053-232200-
CENTRAL PENNSYLVANIA

CITY           SKY/WX    TMP DP  RH WIND       PRES   REMARKS
BRADFORD       SUNNY     66  23  19 NW8       30.36F
DUBOIS         SUNNY     67  29  24 VRB6      30.36F
CLEARFIELD     SUNNY     67  28  23 SW9       30.37F
JOHNSTOWN      SUNNY     65  28  24 W7G17     30.38F
ALTOONA        SUNNY     70  26  19 NW12      30.37F
STATE COLLEGE  SUNNY     70  28  21 SW9       30.36F
WILLIAMSPORT   LGT RAIN  70  26  19 SW9       30.33F
SELINSGROVE    SUNNY     70  33  25 VRB7      30.36F
FT INDIANTOWN  SUNNY     69  28  22 VRB6      30.37F
CAPITAL CITY   SUNNY     69  26  20 VRB3      30.36F
HARRISBURG     MOSUNNY   70  30  22 VRB3      30.36F
YORK           SUNNY     68  35  29 SW7       30.37F
$$

PAZ038>040-043-044-047-048-054-055-060>062-067>071-232200-
EASTERN PENNSYLVANIA

CITY           SKY/WX    TMP DP  RH WIND       PRES   REMARKS
SCRANTON       SUNNY     67  28  23 SW7       30.34F
MOUNT POCONO   SUNNY     63  24  22 VRB7      30.35F
ALLENTOWN      SUNNY     70  27  20 SW6G17    30.35F
QUAKERTOWN*    CLEAR     68  32  26 SW6       30.37F
READING        SUNNY     69  28  21 W9        30.36F
LANCASTER      SUNNY     67  31  26 CALM      30.37F
COATESVILLE    CLEAR     66  30  26 SW5       30.38F
POTTSTOWN      SUNNY     67  27  22 VRB7      30.38F
BLUE BELL      SUNNY     70  28  21 CALM      30.36F
DOYLESTOWN     SUNNY     67  26  21 VRB6      30.36F
WILLOW GROVE   NOT AVBL
NORTH PHILA    SUNNY     71  24  17 W12       30.38F
PHILADELPHIA   SUNNY     70  28  21 SW13      30.37F
$$



USA.gov is the U.S. government's official web portal to all federal, state and local government web resources and services.